Regional Weather Roundup
Issued by NWS

Home | Current Version | Previous Version | Text Only | Print | Product List | Glossary On
Versions: 1 2 3 4 5 6 7 8 9 10 11 12 13 14 15 16 17 18 19 20 21 22 23 24 25 26 27 28 29 30 31 32 33 34 35 36 37 38 39 40 41 42 43 44 45 46 47 48 49 50
000
ASUS46 KSEW 261110
RWRWA

WASHINGTON REGIONAL WEATHER ROUNDUP
NATIONAL WEATHER SERVICE SEATTLE WA
400 AM PDT WED APR 26 2017

NOTE:"FAIR" INDICATES FEW OR NO CLOUDS BELOW 12,000 FEET WITH NO
SIGNIFICANT WEATHER AND/OR OBSTRUCTIONS TO VISIBILITY.

WAZ507-509-555>559-261200-
SEATTLE, TACOMA, EVERETT, AND VICINITY

CITY           SKY/WX    TMP DP  RH WIND       PRES   REMARKS
EVERETT        MOCLDY    49  45  86 S16       29.77R
BOEING FIELD   CLOUDY    50  49  96 SW8       29.81S
RENTON         CLOUDY    51  47  86 S8        29.81S
SEATAC AIRPORT CLOUDY    49  46  90 SW14G22   29.81S
JBLM-MCCHORD   CLOUDY    48  48  99 SW10      29.82S
PUYALLUP         N/A     48  48 100 CALM      29.83S
BREMERTON      NOT AVBL
JBLM-FT LEWIS  MOCLDY    48  45  90 SW3       29.85F
TACOMA NARROWS CLOUDY    47  45  93 S12G20    29.82R
$$

WAZ001-503-506-510-514-515-261200-
NORTH INTERIOR

CITY           SKY/WX    TMP DP  RH WIND       PRES   REMARKS
BELLINGHAM     MOCLDY    50  48  93 S12       29.73S
FRIDAY HARBOR  MOCLDY    48  46  93 S3        29.75S
EASTSOUND      MOCLDY    48  46  93 S10       29.72S
PORT ANGELES   CLOUDY    46  45  96 VRB3      29.75S
EDIZ HOOK      CLOUDY    49  45  87 W6        29.75R
PORT TOWNSEND  CLOUDY    46  45  93 CALM      29.76F
NAS WHIDBEY    CLOUDY    51  45  79 SE8       29.78F
ARLINGTON      CLOUDY    50  41  71 S9        29.79S
BURLINGTON     CLOUDY    50  48  93 S6        29.76S
$$

WAZ020-022-039-040-504-511-512-261200-
SOUTHWEST INTERIOR

CITY           SKY/WX    TMP DP  RH WIND       PRES   REMARKS
SHELTON        LGT RAIN  48  46  93 SW12      29.79F FOG
OLYMPIA        LGT RAIN  48  47  96 S10       29.83F FOG
CHEHALIS       FAIR      50  48  93 VRB6      29.84F
KELSO          CLOUDY    50  50 100 SE3       29.88S
VANCOUVER      CLOUDY    52  50  93 VRB5      29.87F
SCAPPOOSE, OR  CLOUDY    48  47  96 S3        29.87S
PORTLAND, OR   LGT RAIN  51  48  89 SW7       29.88F
$$

WAZ021-516-517-261200-
WASHINGTON COAST

CITY           SKY/WX    TMP DP  RH WIND       PRES   REMARKS
FORKS          CLOUDY    46  45  96 W9        29.79R
HOQUIAM        RAIN      49  48  97 SW18      29.82F FOG
ASTORIA, OR    LGT RAIN  49  46  90 SW8       29.86F
$$

WAZ019-023-024-040-567>569-261200-
CASCADE MOUNTAINS AND COLUMBIA GORGE

CITY           SKY/WX    TMP DP  RH WIND       PRES   REMARKS
STAMPEDE PASS  MIX PCPN  36  36 100 W17G30    29.73S
TROUTDALE, OR  LGT RAIN  53  49  86 VRB6      29.88F
THE DALLES, OR PTCLDY    49  46  90 CALM      29.80F
$$

WAZ026-027-041>044-520-521-261200-
EAST SLOPES

CITY           SKY/WX    TMP DP  RH WIND       PRES   REMARKS
OMAK           CLOUDY    50  37  61 S10G21    29.68S
WENATCHEE      CLEAR     45  38  76 NW13      29.70F
ELLENSBURG     CLOUDY    45  39  79 W9        29.74S
YAKIMA         CLOUDY    42  38  85 W6        29.76S
SUNNYSIDE ARPT SUNNY     42  40  91 CALM      29.76S
$$

WAZ028-034-035-261200-
COLUMBIA BASIN

CITY           SKY/WX    TMP DP  RH WIND       PRES   REMARKS
EPHRATA        MOCLDY    43  37  79 SW6       29.70F
MOSES LAKE     PTCLDY    47  42  83 S9        29.73S
PASCO          CLEAR     52  43  71 SW14      29.77R
HERMISTON, OR  PTCLDY    46  44  93 S7        29.80R
$$

WAZ036>038-261200-
NORTHEAST WASHINGTON

CITY           SKY/WX    TMP DP  RH WIND       PRES   REMARKS
SPOKANE GEIGER LGT RAIN  43  40  89 S3        29.74F
SPOKANE FELTS  CLOUDY    45  43  93 SW3       29.75F
FAIRCHILD AFB  CLOUDY    42  42 100 S8        29.72F
COEURDALENE,ID LGT RAIN  42  40  92 SE6       29.75F
DEER PARK      CLOUDY    39  38  96 CALM      29.74F
$$

WAZ029>033-261200-
SOUTHEAST WASHINGTON

CITY           SKY/WX    TMP DP  RH WIND       PRES   REMARKS
PULLMAN        LGT RAIN  43  41  93 SE6       29.77F FOG
LEWISTON, ID   CLOUDY    48  45  89 NE5       29.77F
WALLA WALLA    CLOUDY    52  46  80 S12       29.79R
PENDLETON, OR  MOCLDY    48  43  82 W7        29.81R
$$



USA.gov is the U.S. government's official web portal to all federal, state and local government web resources and services.